Evansville, IN

5:48 AM CDT on August 24, 2017 (GMT -0500)
Evansville Regional

Weather History for KEVV - May, 2014

Change the Weather History Date:

Wednesday, May 7, 2014

  Actual Average Record
Temperature  
Mean Temperature 75 °F 63 °F  
Max Temperature 85 °F 74 °F 89 °F (1986)
Min Temperature 64 °F 52 °F 33 °F (1944)
Degree Days  
Heating Degree Days 0 4  
Month to date heating degree days 32 31  
Since 1 July heating degree days 4920 4486  
Cooling Degree Days 10 2  
Month to date cooling degree days 24 11  
Year to date cooling degree days 34 38  
Growing Degree Days 24 (Base 50)    
Moisture  
Dew Point 54 °F    
Average Humidity 50    
Maximum Humidity 67    
Minimum Humidity 32    
Precipitation  
Precipitation 0.00 in 0.17 in 4.28 in (1961)
Month to date precipitation T 1.20  
Year to date precipitation 17.77 16.08  
Snow  
Snow 0.00 in 0.00 in T in (1955)
Month to date snowfall 0.0 0.0  
Since 1 July snowfall 12.6 11.8  
Snow Depth 0.00 in    
Sea Level Pressure  
Sea Level Pressure 29.90 in    
Wind  
Wind Speed 12 mph (South)    
Max Wind Speed 23 mph    
Max Gust Speed 30 mph    
Visibility 10 miles    
Events      
T = Trace of Precipitation, MM = Missing Value Source: NWS Daily Summary

Daily Weather History Graph

Daily Weather History Graph

Search for Another Location

Airport or City:

Trip Planner

Search our weather history database for the weather conditions in past years. The results will help you decide how hot, cold, wet, or windy it might be!

Date:

Astronomy

May. 07, 2014 Rise Set
Actual Time 5:47 AM CDT 7:46 PM CDT
Civil Twilight 5:18 AM CDT 8:15 PM CDT
Nautical Twilight 4:43 AM CDT 8:50 PM CDT
Astronomical Twilight 4:05 AM CDT 9:28 PM CDT
Moon 12:57 PM CDT (5/7) 1:39 AM CDT (5/7)
Length of Visible Light 14h 57m
Length of Day
13h 59m
First Quarter, 55% of the Moon is Illuminated
May 7
First Quarter
May 14
Full
May 21
Last Quarter
May 28
New
Jun 5
First Quarter

Hourly Weather History & Observations

Time (CDT) Temp. Heat Index Dew Point Humidity Pressure Visibility Wind Dir Wind Speed Gust Speed Precip Events Conditions
12:54 AM 73.0 °F - 51.1 °F 46% 29.86 in 10.0 mi SSW 10.4 mph - N/A   Clear
1:54 AM 70.0 °F - 51.1 °F 51% 29.86 in 10.0 mi South 6.9 mph - N/A   Clear
2:54 AM 69.1 °F - 51.1 °F 53% 29.86 in 10.0 mi South 9.2 mph - N/A   Clear
3:54 AM 66.9 °F - 52.0 °F 59% 29.88 in 10.0 mi South 5.8 mph - N/A   Clear
4:54 AM 66.0 °F - 52.0 °F 60% 29.88 in 10.0 mi South 5.8 mph - N/A   Clear
5:54 AM 64.9 °F - 53.1 °F 65% 29.89 in 10.0 mi SSE 5.8 mph - N/A   Clear
6:54 AM 64.9 °F - 54.0 °F 68% 29.91 in 10.0 mi South 5.8 mph - N/A   Clear
7:54 AM 69.1 °F - 55.0 °F 61% 29.93 in 10.0 mi South 8.1 mph - N/A   Clear
8:54 AM 72.0 °F - 57.0 °F 59% 29.94 in 8.0 mi SSW 16.1 mph 24.2 mph N/A   Clear
9:54 AM 75.0 °F - 59.0 °F 57% 29.94 in 10.0 mi SSW 12.7 mph 23.0 mph N/A   Clear
10:54 AM 78.1 °F - 57.9 °F 50% 29.94 in 10.0 mi SSW 16.1 mph 25.3 mph N/A   Clear
11:54 AM 78.8 °F - 57.2 °F 47% 29.94 in 10.0 mi South 18.4 mph 25.3 mph N/A   Clear
12:54 PM 81.0 °F 80.5 °F 54.0 °F 39% 29.91 in 8.0 mi South 20.7 mph 26.5 mph N/A   Clear
1:54 PM 82.9 °F 81.8 °F 53.1 °F 36% 29.91 in 6.0 mi South 17.3 mph 26.5 mph N/A   Clear
2:54 PM 82.9 °F 81.9 °F 54.0 °F 37% 29.90 in 10.0 mi SW 20.7 mph 26.5 mph N/A   Clear
3:54 PM 84.0 °F 82.6 °F 54.0 °F 35% 29.89 in 10.0 mi SSW 15.0 mph 23.0 mph N/A   Clear
4:54 PM 84.9 °F 83.3 °F 54.0 °F 34% 29.88 in 10.0 mi SSW 13.8 mph - N/A   Clear
5:54 PM 84.0 °F - 52.0 °F 33% 29.88 in 8.0 mi South 15.0 mph 25.3 mph N/A   Clear
6:54 PM 82.0 °F 81.2 °F 53.1 °F 37% 29.88 in 10.0 mi SSW 15.0 mph - N/A   Clear
7:54 PM 79.0 °F - 55.0 °F 44% 29.90 in 10.0 mi South 8.1 mph - N/A   Clear
8:54 PM 77.0 °F - 55.0 °F 47% 29.91 in 10.0 mi South 8.1 mph - N/A   Clear
9:54 PM 75.9 °F - 55.9 °F 50% 29.94 in 10.0 mi SSW 10.4 mph - N/A   Clear
10:54 PM 75.9 °F - 55.9 °F 50% 29.94 in 10.0 mi SSW 11.5 mph - N/A   Clear
11:54 PM 75.0 °F - 57.0 °F 53% 29.94 in 10.0 mi SSW 12.7 mph - N/A   Clear